SCP
0 0 0 0 0 0 0 0 0 0 0 0 0 0 0 0 0 0 0 0 0 0 0 0 0 -0 0
0 0 0 0 0 0 0 0 0 0 0 0 0 0 0 0 0 0 0 0 0 0 0 -0 0 0 0
0 0 0 0 0 0 0 0 0 0 0 0 0 0 0 0 0 0 0 0 0 0 -0 0 0 0 0
0 0 0 0 0 0 0 0 0 0 0 0 0 0 0 0 0 0 0 0 0 0 0 0 0 0 0
0 0 0 0 0 0 0 0 0 0 0 0 0 0 0 0 0 0 0 0 0 0 0 0 0 0 0
0 0 0 0 0 0 0 0 0 0 0 0 0 0 0 0 0 0 0 0 0 0 0 0 0 0 0
0 0 0 0 0 0 0 0 0 0 0 0 0 0 0 0 0 0 0 0 0 0 0 0 0 0 0
0 0 0 0 0 0 0 0 0 0 0 0 0 0 0 0 0 0 0 0 0 0 0 0 0 0 0
0 0 0 0 0 0 0 0 0 0 0 0 0 0 0 0 0 0 0 0 0 0 0 0 0 0 0
0 0 0 0 0 0 0 0 0 0 0 0 0 0 0 0 0 0 0 0 0 0 0 0 0 0 0
0 0 0 0 0 0 0 0 0 0 0 0 0 0 0 0 0 0 0 0 0 0 0 0 0 0 0
0 0 0 0 0 0 0 0 0 0 0 0 0 0 0 0 0 0 0 0 0 0 0 0 0 0 0
0 0 0 0 0 0 0 0 0 0 0 0 0 0 0 0 0 0 0 0 0 0 0 0 0 0 0
0 0 0 0 0 0 0 0 0 0 0 0 0 0 0 0 0 0 0 0 0 0 0 0 0 0 0
0 0 0 0 0 0 0 0 0 0 0 0 0 0 0 0 0 0 0 0 0 0 0 0 0 0 0
0 0 0 0 0 0 0 0 0 0 0 0 0 0 0 0 0 0 0 0 0 0 0 0 0 0 0
Wind_Speed_500mb
41 36 32 32 34 38 39 37 36 37 33 29 27 26 23 19 17 16 14 8 8 9 15 25 25 20 16
44 38 33 30 33 39 38 39 38 36 33 28 26 24 22 19 16 14 10 9 11 15 21 31 22 12 10
47 42 36 32 33 38 39 37 36 34 32 29 28 24 20 17 13 10 10 10 11 18 30 30 14 10 9
50 47 42 38 36 37 38 38 35 32 30 29 26 23 19 15 8 11 10 10 14 18 32 25 13 13 17
55 51 49 43 39 39 40 41 37 26 32 30 25 24 19 12 7 10 10 11 19 13 22 23 20 14 12
57 57 52 47 39 39 40 42 39 36 35 30 24 22 12 10 14 13 10 9 15 19 22 23 25 19 12
56 55 55 52 43 35 41 47 43 41 31 29 20 21 22 19 19 18 12 11 15 22 24 25 28 22 10
64 63 59 57 50 44 43 48 45 38 32 32 36 34 32 26 22 18 13 13 19 21 24 25 26 24 16
65 64 63 57 50 47 43 45 45 38 34 38 38 37 32 32 22 16 16 20 20 21 21 21 23 24 20
64 62 69 56 51 47 45 43 49 46 36 47 42 42 32 28 24 21 21 24 22 22 23 23 23 23 23
69 61 68 63 59 50 48 44 40 45 44 46 43 39 34 30 26 23 24 26 27 26 24 23 22 23 25
61 58 68 65 58 52 47 45 46 47 50 46 45 43 38 32 28 28 29 31 30 28 26 24 24 26 28
81 72 73 70 60 52 49 51 48 53 51 51 48 41 39 35 32 35 33 36 36 35 29 27 25 26 30
84 78 76 71 62 59 58 58 55 55 54 52 47 43 39 38 38 39 40 41 41 36 31 23 16 25 32
80 78 74 73 66 68 69 63 65 59 57 53 48 44 40 40 40 40 41 43 42 36 40 22 13 17 15
84 82 88 90 86 80 75 68 64 58 57 56 51 45 42 41 43 43 42 43 41 39 42 42 34 26 17
Wind_Direction_500mb
175 171 168 168 169 169 169 168 170 169 164 162 159 152 151 152 142 125 114 108 81 88 102 115 114 126 136
179 176 172 171 171 171 173 174 174 172 166 166 164 158 161 160 151 131 125 85 93 89 107 115 138 138 152
184 179 178 175 175 173 176 176 177 172 170 171 171 167 170 163 151 129 116 86 88 104 115 114 146 141 156
189 185 183 179 179 182 179 178 176 175 177 180 178 176 174 167 154 136 128 109 106 104 126 116 164 182 163
191 191 189 183 183 187 186 179 174 182 184 188 185 183 176 173 157 162 160 152 139 169 141 151 205 195 217
198 197 193 189 186 188 190 180 167 199 196 189 184 179 163 165 183 173 194 186 184 183 174 181 191 223 222
206 205 195 198 197 196 194 183 182 198 190 173 184 182 188 197 198 222 210 210 191 190 189 186 184 226 206
204 206 201 201 200 199 199 192 192 188 188 175 194 193 190 201 208 214 224 216 205 201 196 194 194 211 226
206 208 199 198 201 199 204 199 189 183 193 195 202 203 194 199 209 225 228 223 216 211 208 203 202 206 228
208 207 199 196 206 198 201 201 195 190 191 204 204 206 202 207 224 227 228 227 222 215 213 210 212 216 220
208 204 197 202 213 206 203 201 201 193 205 209 206 217 210 208 223 232 226 227 222 219 217 220 222 224 228
193 208 201 208 210 207 202 191 194 200 207 208 214 218 215 213 226 237 233 226 226 225 224 222 224 227 240
205 203 204 207 206 204 203 201 201 210 211 212 219 216 218 224 234 240 236 229 222 224 221 219 227 236 245
211 209 209 208 207 201 203 202 207 211 215 221 218 218 217 229 234 240 239 229 226 225 222 224 229 243 249
212 210 212 215 211 207 209 210 209 212 220 216 218 221 224 234 236 243 241 234 232 227 225 217 209 227 244
215 211 214 216 215 216 221 218 218 220 216 216 217 220 226 234 239 241 239 235 233 234 227 231 236 248 241
Wind_Speed_850mb
41 36 32 32 34 38 39 37 36 37 33 29 27 26 23 19 17 16 14 8 8 9 15 25 25 20 16
44 38 33 30 33 39 38 39 38 36 33 28 26 24 22 19 16 14 10 9 11 15 21 31 22 12 10
47 42 36 32 33 38 39 37 36 34 32 29 28 24 20 17 13 10 10 10 11 18 30 30 14 10 9
50 47 42 38 36 37 38 38 35 32 30 29 26 23 19 15 8 11 10 10 14 18 32 25 13 13 17
55 51 49 43 39 39 40 41 37 26 32 30 25 24 19 12 7 10 10 11 19 13 22 23 20 14 12
57 57 52 47 39 39 40 42 39 36 35 30 24 22 12 10 14 13 10 9 15 19 22 23 25 19 12
56 55 55 52 43 35 41 47 43 41 31 29 20 21 22 19 19 18 12 11 15 22 24 25 28 22 10
64 63 59 57 50 44 43 48 45 38 32 32 36 34 32 26 22 18 13 13 19 21 24 25 26 24 16
65 64 63 57 50 47 43 45 45 38 34 38 38 37 32 32 22 16 16 20 20 21 21 21 23 24 20
64 62 69 56 51 47 45 43 49 46 36 47 42 42 32 28 24 21 21 24 22 22 23 23 23 23 23
69 61 68 63 59 50 48 44 40 45 44 46 43 39 34 30 26 23 24 26 27 26 24 23 22 23 25
61 58 68 65 58 52 47 45 46 47 50 46 45 43 38 32 28 28 29 31 30 28 26 24 24 26 28
81 72 73 70 60 52 49 51 48 53 51 51 48 41 39 35 32 35 33 36 36 35 29 27 25 26 30
84 78 76 71 62 59 58 58 55 55 54 52 47 43 39 38 38 39 40 41 41 36 31 23 16 25 32
80 78 74 73 66 68 69 63 65 59 57 53 48 44 40 40 40 40 41 43 42 36 40 22 13 17 15
84 82 88 90 86 80 75 68 64 58 57 56 51 45 42 41 43 43 42 43 41 39 42 42 34 26 17
Wind_Direction_850mb
175 171 168 168 169 169 169 168 170 169 164 162 159 152 151 152 142 125 114 108 81 88 102 115 114 126 136
179 176 172 171 171 171 173 174 174 172 166 166 164 158 161 160 151 131 125 85 93 89 107 115 138 138 152
184 179 178 175 175 173 176 176 177 172 170 171 171 167 170 163 151 129 116 86 88 104 115 114 146 141 156
189 185 183 179 179 182 179 178 176 175 177 180 178 176 174 167 154 136 128 109 106 104 126 116 164 182 163
191 191 189 183 183 187 186 179 174 182 184 188 185 183 176 173 157 162 160 152 139 169 141 151 205 195 217
198 197 193 189 186 188 190 180 167 199 196 189 184 179 163 165 183 173 194 186 184 183 174 181 191 223 222
206 205 195 198 197 196 194 183 182 198 190 173 184 182 188 197 198 222 210 210 191 190 189 186 184 226 206
204 206 201 201 200 199 199 192 192 188 188 175 194 193 190 201 208 214 224 216 205 201 196 194 194 211 226
206 208 199 198 201 199 204 199 189 183 193 195 202 203 194 199 209 225 228 223 216 211 208 203 202 206 228
208 207 199 196 206 198 201 201 195 190 191 204 204 206 202 207 224 227 228 227 222 215 213 210 212 216 220
208 204 197 202 213 206 203 201 201 193 205 209 206 217 210 208 223 232 226 227 222 219 217 220 222 224 228
193 208 201 208 210 207 202 191 194 200 207 208 214 218 215 213 226 237 233 226 226 225 224 222 224 227 240
205 203 204 207 206 204 203 201 201 210 211 212 219 216 218 224 234 240 236 229 222 224 221 219 227 236 245
211 209 209 208 207 201 203 202 207 211 215 221 218 218 217 229 234 240 239 229 226 225 222 224 229 243 249
212 210 212 215 211 207 209 210 209 212 220 216 218 221 224 234 236 243 241 234 232 227 225 217 209 227 244
215 211 214 216 215 216 221 218 218 220 216 216 217 220 226 234 239 241 239 235 233 234 227 231 236 248 241